Location: ?????????
(41.2393°N, 22.9479°E)
Time: 05:37:51
(UTC+00:00)

SJ 16-02 - Pass Details

Date: 17 November 2025
Orbit: 585 x 594 km, 75.0° (Epoch: 09 December)

Event Time Altitude Azimuth Distance (km) Brightness Sun altitude
Rises 18:09:16 0° 246° (WSW) 2,827 5.6 -34.1°
Reaches altitude 10° 18:12:41 10° 275° (W) 1,931 4.7 -34.8°
Maximum altitude 18:14:39 13° 303° (WNW) 1,751 4.3 -35.1°
Enters shadow 18:15:28 12° 315° (NW) 1,784 4.2 -35.3°
